Location: Archamps
(46.1365°N, 6.1329°E)
Time: 07:34:49
(UTC+00:00)

Okean O Rocket - Pass Details

Date: 28 January 2023
Orbit: 620 x 643 km, 98.1° (Epoch: 21 March)

Event Time Altitude Azimuth Distance (km) Brightness Sun altitude
Exits shadow 17:10:51 - 110° (ESE) 2,779 4.4 -6.7°
Reaches altitude 10° 17:13:48 10° 84° (E) 2,015 3.5 -7.2°
Maximum altitude 17:15:41 13° 58° (ENE) 1,849 3.4 -7.5°
Drops below altitude 10° 17:17:34 10° 33° (NNE) 2,027 3.7 -7.8°
Sets 17:20:58 0° 5° (N) 2,947 4.8 -8.4°
